カタログに戻る

SL-23 DEB

LostHEO
NORAD 35577·DEBRIS·🇷🇺 Russia

打ち上げ Feb 26, 2009 から Baikonur Cosmodrome

Loading…

次のパス (今後24時間)

TLE

古いSource: Space-Track

元期: Jun 4, 2024, 09:21 UTC

1 35577U 09009C   24156.38990581 -.00000056  00000-0  00000+0 0  9997
2 35577  35.1972 100.4794 6848400 239.7632 343.2146  2.20109299121453

AllMySatでSL-23 DEBをリアルタイム追跡

Download on the App Store